Weather Roundup
Issued by NWS Springfield, MO

Home | Current Version | Previous Version | Text Only | Print | Product List | Glossary On
Versions: 1 2 3 4 5 6 7 8 9 10 11 12 13 14 15 16 17 18 19 20 21 22 23 24 25 26 27 28 29 30 31 32 33 34 35 36 37 38 39 40 41 42 43 44 45 46 47 48 49 50
114
NZUS99 KSGF 240907
HRRSGF

HOURLY WEATHER
NATIONAL WEATHER SERVICE SPRINGFIELD MO
400 AM CDT MON JUL 24 2017

......SGF CWA......

CITY           SKY/WX    TMP DP  RH WIND       PRES   REMARKS
SPRINGFIELD    CLEAR     73  71  93 SW3       29.95S
JOPLIN         CLEAR     73  71  93 CALM      29.95F
WEST PLAINS    MOCLDY    70  66  87 W3        29.95S
ROLLA          CLEAR     71  69  93 CALM      29.93S
OSAGE BEACH    CLEAR     71  69  93 CALM      29.94R
BRANSON        CLOUDY    73  70  88 CALM      29.96S

......SURROUNDING SGF CWA......

CITY           SKY/WX    TMP DP  RH WIND       PRES   REMARKS
CHANUTE        CLEAR     73  71  93 S6        29.95S
PARSONS        CLEAR     70  68  93 CALM      29.95F FOG
COFFEYVILLE    CLEAR     73  71  93 SE3       29.94S
EMPORIA        CLEAR     73  72  96 CALM      29.96S
GROVE OK       PTCLDY    70  70 100 CALM      29.96S
ROGERS AR      PTCLDY    68  67  96 NW3       29.97F
SILOAM SPRINGS CLEAR     68  64  88 CALM      29.96S
HARRISON AR    CLOUDY    71  69  93 NW7       29.95S
NEAR YELLVILLE CLOUDY    72  64  78 CALM      29.90S

......KANSAS AND MISSOURI......

CITY           SKY/WX    TMP DP  RH WIND       PRES   REMARKS
KANSAS CTY INT PTCLDY    71  65  81 NE7       29.97S
DOWNTOWN KC    PTCLDY    75  66  73 NE7       29.95S
COLUMBIA       MOCLDY    72  67  84 E6        29.94R
SEDALIA        CLEAR     74  72  93 NE8       29.95R
ST JOSEPH      CLEAR     68  65  90 CALM      29.97F
ST LOUIS       PTCLDY    75  68  78 N5        29.91S
SPIRIT OF STL  CLEAR     71  71 100 CALM      29.90S
KIRKSVILLE     CLEAR     65  61  87 N7        29.96F
WICHITA        CLEAR     74  70  87 CALM      29.96S
TOPEKA         MOCLDY    73  70  90 N5        29.96S
OLATHE         PTCLDY    74  67  78 NE7       29.96S

......TENNESSEE......

CITY           SKY/WX    TMP DP  RH WIND       PRES   REMARKS
MEMPHIS        CLOUDY    75  73  93 E3        29.88S
NASHVILLE      CLOUDY    71  68  90 S5        29.90F

......ARKANSAS.......

CITY           SKY/WX    TMP DP  RH WIND       PRES   REMARKS
FAYETTEVILLE   PTCLDY    68  68 100 CALM      29.96S
FT SMITH       MOCLDY    75  74  96 SW8       29.92S
LITTLE ROCK    CLOUDY    72  72 100 S6        29.88R

......OKLAHOMA.......

CITY           SKY/WX    TMP DP  RH WIND       PRES   REMARKS
TULSA          PTCLDY    74  70  87 CALM      29.92F
PONCA CITY     CLEAR     71  66  84 CALM      29.94F
MCALESTER      MOCLDY    72  71  97 E3        29.96F
OKLAHOMA CITY  PTCLDY    71  69  93 CALM      29.95F

......IOWA............

CITY           SKY/WX    TMP DP  RH WIND       PRES   REMARKS
DES MOINES     CLEAR     66  61  84 NE3       29.98S
QUAD CITIES    CLEAR     68  61  78 VRB3      29.94R

......ILLINOIS........

CITY           SKY/WX    TMP DP  RH WIND       PRES   REMARKS
QUINCY         CLEAR     68  62  81 N6        29.93S
CHICAGO        CLOUDY    68  60  75 N9        29.93R




USA.gov is the U.S. government's official web portal to all federal, state and local government web resources and services.